Time,TemperatureF,DewpointF,PressureIn,WindDirection,WindDirectionDegrees,WindSpeedMPH,WindSpeedGustMPH,Humidity,HourlyPrecipIn,Conditions,Clouds,dailyrainin,SoftwareType,DateUTC
2013-02-05 06:30:00,50.0,46.0,29.96,NNE,22,0.0,15.0,86,0.00,,,-99.99,Weather View 32 v70,2013-02-05 14:30:00,
2013-02-05 06:35:00,50.0,46.0,29.96,North,0,0.0,15.0,86,0.00,,,-99.99,Weather View 32 v70,2013-02-05 14:35:00,
2013-02-05 06:50:00,50.0,45.7,29.96,North,0,0.0,15.0,85,0.00,,,-99.99,Weather View 32 v70,2013-02-05 14:50:00,
2013-02-05 07:05:00,50.0,46.0,29.96,North,0,0.0,8.0,86,0.00,,,-99.99,Weather View 32 v70,2013-02-05 15:05:00,
2013-02-05 07:20:00,50.0,45.7,29.97,NNE,22,0.0,8.0,85,0.00,,,-99.99,Weather View 32 v70,2013-02-05 15:20:00,
2013-02-05 07:22:00,50.0,45.7,29.97,NNE,22,0.0,8.0,85,0.00,,,-99.99,Weather View 32 v70,2013-02-05 15:22:00,
2013-02-05 07:35:00,50.0,45.7,29.97,NNE,22,0.0,8.0,85,0.00,,,-99.99,Weather View 32 v70,2013-02-05 15:35:00,
2013-02-05 07:50:00,50.0,45.7,29.98,North,0,0.0,1.0,85,0.00,,,-99.99,Weather View 32 v70,2013-02-05 15:50:00,
2013-02-05 08:05:00,50.0,46.0,29.97,North,0,0.0,1.0,86,0.00,,,-99.99,Weather View 32 v70,2013-02-05 16:05:00,
2013-02-05 08:20:00,50.0,46.6,29.99,NNE,22,0.0,0.0,88,0.00,,,-99.99,Weather View 32 v70,2013-02-05 16:20:00,
2013-02-05 08:22:00,50.0,46.6,29.99,NNE,22,0.0,0.0,88,0.00,,,-99.99,Weather View 32 v70,2013-02-05 16:22:00,
2013-02-05 08:35:00,50.0,46.6,29.99,NNW,338,0.0,0.0,88,0.00,,,-99.99,Weather View 32 v70,2013-02-05 16:35:00,
2013-02-05 08:50:00,50.0,46.3,29.99,North,0,0.0,0.0,87,0.00,,,-99.99,Weather View 32 v70,2013-02-05 16:50:00,
2013-02-05 09:05:00,51.0,47.3,29.99,NNW,338,0.0,0.0,87,0.00,,,-99.99,Weather View 32 v70,2013-02-05 17:05:00,
2013-02-05 09:20:00,51.0,47.6,29.99,North,0,0.0,0.0,88,0.00,,,-99.99,Weather View 32 v70,2013-02-05 17:20:00,
2013-02-05 09:23:00,51.0,47.6,29.99,North,0,0.0,0.0,88,0.00,,,-99.99,Weather View 32 v70,2013-02-05 17:23:00,
2013-02-05 09:35:00,51.0,47.9,29.99,North,0,0.0,0.0,89,0.00,,,-99.99,Weather View 32 v70,2013-02-05 17:35:00,
2013-02-05 09:50:00,51.0,47.9,29.99,NNW,338,0.0,0.0,89,0.00,,,-99.99,Weather View 32 v70,2013-02-05 17:50:00,
2013-02-05 10:05:00,52.0,47.9,29.99,NNE,22,0.0,0.0,86,0.00,,,-99.99,Weather View 32 v70,2013-02-05 18:05:00,
2013-02-05 10:20:00,53.0,47.6,29.99,NNE,22,0.0,11.0,82,0.00,,,-99.99,Weather View 32 v70,2013-02-05 18:20:00,
2013-02-05 10:23:00,53.0,47.6,29.99,NNE,22,0.0,11.0,82,0.00,,,-99.99,Weather View 32 v70,2013-02-05 18:23:00,
2013-02-05 10:35:00,54.0,48.3,29.99,NNE,22,8.0,11.0,81,0.00,,,-99.99,Weather View 32 v70,2013-02-05 18:35:00,
2013-02-05 10:50:00,54.0,47.6,30.00,NNE,22,0.0,11.0,79,0.00,,,-99.99,Weather View 32 v70,2013-02-05 18:50:00,
2013-02-05 11:05:00,55.0,48.3,30.00,NNE,22,0.0,11.0,78,0.00,,,-99.99,Weather View 32 v70,2013-02-05 19:05:00,
2013-02-05 11:20:00,55.0,47.9,30.00,North,0,0.0,11.0,77,0.00,,,-99.99,Weather View 32 v70,2013-02-05 19:20:00,
2013-02-05 11:35:00,55.0,47.9,29.99,North,0,0.0,10.0,77,0.00,,,-99.99,Weather View 32 v70,2013-02-05 19:35:00,
2013-02-05 11:50:00,55.0,48.6,29.99,NNE,22,7.0,12.0,79,0.00,,,-99.99,Weather View 32 v70,2013-02-05 19:50:00,
2013-02-05 12:05:00,56.0,49.2,30.00,NNE,22,0.0,12.0,78,0.00,,,-99.99,Weather View 32 v70,2013-02-05 20:05:00,
2013-02-05 12:20:00,57.0,49.5,29.99,NNE,22,2.0,12.0,76,0.00,,,-99.99,Weather View 32 v70,2013-02-05 20:20:00,
2013-02-05 12:35:00,58.0,49.7,29.99,North,0,5.0,12.0,74,0.00,,,-99.99,Weather View 32 v70,2013-02-05 20:35:00,
2013-02-05 12:50:00,59.0,50.0,29.98,North,0,10.0,11.0,72,0.00,,,-99.99,Weather View 32 v70,2013-02-05 20:50:00,
2013-02-05 13:05:00,60.0,50.5,29.98,North,0,3.0,13.0,71,0.00,,,-99.99,Weather View 32 v70,2013-02-05 21:05:00,
2013-02-05 13:15:00,59.0,49.6,29.97,North,0,6.0,15.0,71,0.00,,,-99.99,Weather View 32 v70,2013-02-05 21:15:00,
2013-02-05 13:20:00,59.0,49.6,29.97,North,0,6.0,15.0,71,0.00,,,-99.99,Weather View 32 v70,2013-02-05 21:20:00,
2013-02-05 13:35:00,59.0,50.0,29.97,North,0,8.0,16.0,72,0.00,,,-99.99,Weather View 32 v70,2013-02-05 21:35:00,
2013-02-05 13:50:00,59.0,50.7,29.97,North,0,10.0,17.0,74,0.00,,,-99.99,Weather View 32 v70,2013-02-05 21:50:00,
2013-02-05 14:05:00,59.0,51.1,29.97,NNW,338,10.0,17.0,75,0.00,,,-99.99,Weather View 32 v70,2013-02-05 22:05:00,
2013-02-05 14:15:00,59.0,50.3,29.97,North,0,10.0,17.0,73,0.00,,,-99.99,Weather View 32 v70,2013-02-05 22:15:00,
2013-02-05 14:20:00,59.0,50.3,29.97,North,0,10.0,17.0,73,0.00,,,-99.99,Weather View 32 v70,2013-02-05 22:20:00,
2013-02-05 14:35:00,59.0,50.0,29.97,NW,315,5.0,17.0,72,0.00,,,-99.99,Weather View 32 v70,2013-02-05 22:35:00,
2013-02-05 14:50:00,59.0,50.3,29.97,North,0,7.0,17.0,73,0.00,,,-99.99,Weather View 32 v70,2013-02-05 22:50:00,
2013-02-05 15:05:00,60.0,51.3,29.98,North,0,14.0,19.0,73,0.00,,,-99.99,Weather View 32 v70,2013-02-05 23:05:00,
2013-02-05 15:15:00,59.0,50.3,29.99,NNW,338,8.0,21.0,73,0.00,,,-99.99,Weather View 32 v70,2013-02-05 23:15:00,
2013-02-05 15:20:00,59.0,50.3,29.99,NNW,338,8.0,21.0,73,0.00,,,-99.99,Weather View 32 v70,2013-02-05 23:20:00,
2013-02-05 15:35:00,59.0,50.3,29.99,North,0,14.0,21.0,73,0.00,,,-99.99,Weather View 32 v70,2013-02-05 23:35:00,
2013-02-05 15:50:00,59.0,50.0,30.00,North,0,6.0,21.0,72,0.00,,,-99.99,Weather View 32 v70,2013-02-05 23:50:00,
2013-02-05 16:05:00,59.0,50.7,30.01,North,0,7.0,21.0,74,0.00,,,-99.99,Weather View 32 v70,2013-02-06 00:05:00,
2013-02-05 16:15:00,59.0,51.1,30.01,NNW,338,9.0,20.0,75,0.00,,,-99.99,Weather View 32 v70,2013-02-06 00:15:00,
2013-02-05 16:20:00,59.0,51.1,30.01,NNW,338,9.0,20.0,75,0.00,,,-99.99,Weather View 32 v70,2013-02-06 00:20:00,
2013-02-05 16:35:00,58.0,50.8,30.01,North,0,6.0,20.0,77,0.00,,,-99.99,Weather View 32 v70,2013-02-06 00:35:00,
2013-02-05 16:50:00,57.0,50.5,30.01,NNE,22,8.0,20.0,79,0.00,,,-99.99,Weather View 32 v70,2013-02-06 00:50:00,
2013-02-05 17:05:00,57.0,51.5,30.02,North,0,9.0,20.0,82,0.00,,,-99.99,Weather View 32 v70,2013-02-06 01:05:00,
2013-02-05 17:15:00,56.0,51.2,30.01,North,0,11.0,20.0,84,0.00,,,-99.99,Weather View 32 v70,2013-02-06 01:15:00,
2013-02-05 17:20:00,56.0,51.2,30.01,North,0,11.0,20.0,84,0.00,,,-99.99,Weather View 32 v70,2013-02-06 01:20:00,
2013-02-05 17:35:00,55.0,50.9,30.01,NNE,22,10.0,19.0,86,0.00,,,-99.99,Weather View 32 v70,2013-02-06 01:35:00,
2013-02-05 17:50:00,55.0,51.2,30.02,North,0,1.0,19.0,87,0.00,,,-99.99,Weather View 32 v70,2013-02-06 01:50:00,
2013-02-05 18:05:00,54.0,50.5,30.02,North,0,0.0,18.0,88,0.00,,,-99.99,Weather View 32 v70,2013-02-06 02:05:00,
2013-02-05 18:15:00,53.0,50.1,30.02,NNE,22,0.0,16.0,90,0.00,,,-99.99,Weather View 32 v70,2013-02-06 02:15:00,
2013-02-05 18:20:00,53.0,50.1,30.02,NNE,22,0.0,16.0,90,0.00,,,-99.99,Weather View 32 v70,2013-02-06 02:20:00,
2013-02-05 18:35:00,53.0,50.4,30.02,North,0,0.0,13.0,91,0.00,,,-99.99,Weather View 32 v70,2013-02-06 02:35:00,
2013-02-05 18:50:00,52.0,49.7,30.03,NNE,22,0.0,10.0,92,0.00,,,-99.99,Weather View 32 v70,2013-02-06 02:50:00,
2013-02-05 19:05:00,52.0,50.3,30.02,North,0,5.0,10.0,94,0.00,,,-99.99,Weather View 32 v70,2013-02-06 03:05:00,
2013-02-05 19:15:00,52.0,50.0,30.02,North,0,6.0,11.0,93,0.00,,,-99.99,Weather View 32 v70,2013-02-06 03:15:00,
2013-02-05 19:20:00,52.0,50.0,30.02,North,0,6.0,11.0,93,0.00,,,-99.99,Weather View 32 v70,2013-02-06 03:20:00,
2013-02-05 19:35:00,52.0,49.7,30.02,North,0,10.0,14.0,92,0.00,,,-99.99,Weather View 32 v70,2013-02-06 03:35:00,
2013-02-05 19:50:00,51.0,49.0,30.03,North,0,0.0,14.0,93,0.00,,,-99.99,Weather View 32 v70,2013-02-06 03:50:00,
2013-02-05 20:05:00,51.0,49.3,30.03,North,0,2.0,14.0,94,0.00,,,-99.99,Weather View 32 v70,2013-02-06 04:05:00,
2013-02-05 20:15:00,50.0,48.6,30.03,NNE,22,0.0,14.0,95,0.00,,,-99.99,Weather View 32 v70,2013-02-06 04:15:00,
2013-02-05 20:20:00,50.0,48.6,30.03,NNE,22,0.0,14.0,95,0.00,,,-99.99,Weather View 32 v70,2013-02-06 04:20:00,
2013-02-05 20:35:00,50.0,48.9,30.03,NNE,22,0.0,13.0,96,0.00,,,-99.99,Weather View 32 v70,2013-02-06 04:35:00,
2013-02-05 20:50:00,50.0,48.9,30.03,NNE,22,0.0,8.0,96,0.00,,,-99.99,Weather View 32 v70,2013-02-06 04:50:00,
2013-02-05 21:05:00,50.0,48.9,30.03,NNE,22,0.0,8.0,96,0.00,,,-99.99,Weather View 32 v70,2013-02-06 05:05:00,
2013-02-05 21:15:00,50.0,49.2,30.03,NNE,22,0.0,2.0,97,0.00,,,-99.99,Weather View 32 v70,2013-02-06 05:15:00,
2013-02-05 21:20:00,50.0,49.2,30.03,NNE,22,0.0,2.0,97,0.00,,,-99.99,Weather View 32 v70,2013-02-06 05:20:00,
2013-02-05 21:35:00,49.0,47.9,30.03,NNE,22,0.0,1.0,96,0.00,,,-99.99,Weather View 32 v70,2013-02-06 05:35:00,
2013-02-05 21:50:00,49.0,47.6,30.04,NNE,22,0.0,0.0,95,0.00,,,-99.99,Weather View 32 v70,2013-02-06 05:50:00,
2013-02-05 22:05:00,49.0,47.1,30.04,North,0,0.0,1.0,93,0.00,,,-99.99,Weather View 32 v70,2013-02-06 06:05:00,
2013-02-05 22:15:00,50.0,47.5,30.04,North,0,0.0,7.0,91,0.00,,,-99.99,Weather View 32 v70,2013-02-06 06:15:00,
2013-02-05 22:20:00,50.0,47.5,30.04,North,0,0.0,7.0,91,0.00,,,-99.99,Weather View 32 v70,2013-02-06 06:20:00,
2013-02-05 22:35:00,49.0,46.5,30.04,NNE,22,0.0,7.0,91,0.00,,,-99.99,Weather View 32 v70,2013-02-06 06:35:00,
2013-02-05 22:50:00,49.0,46.5,30.03,North,0,1.0,24.0,91,0.00,,,-99.99,Weather View 32 v70,2013-02-06 06:50:00,
2013-02-05 23:05:00,48.0,45.5,30.04,NNW,338,0.0,24.0,91,0.00,,,-99.99,Weather View 32 v70,2013-02-06 07:05:00,
2013-02-05 23:15:00,49.0,46.8,30.03,North,0,0.0,24.0,92,0.00,,,-99.99,Weather View 32 v70,2013-02-06 07:15:00,
2013-02-05 23:20:00,49.0,46.8,30.03,North,0,0.0,24.0,92,0.00,,,-99.99,Weather View 32 v70,2013-02-06 07:20:00,
2013-02-05 23:35:00,50.0,45.7,30.03,North,0,6.0,24.0,85,0.00,,,-99.99,Weather View 32 v70,2013-02-06 07:35:00,
2013-02-05 23:50:00,49.0,45.3,30.03,North,0,10.0,19.0,87,0.00,,,-99.99,Weather View 32 v70,2013-02-06 07:50:00,